GPS BIIR-16M

Last updated on Mon Oct 20 2025 00:02:34 GMT+0000 (Coordinated Universal Time)

1 29601U 06052A 25291.60616125 -.00000047 00000+0 00000+0 0 9997 2 29601 54.9856 223.5848 0086053 87.0222 273.9522 2.00570059138563
UTC large
Height (km)
Speed (km/s)
/
Latitude / Longitude
Inclination (degrees)
Orbital Period (minutes)
Azimuth
Elevation
Range (km)
Doppler Factor

Next 0 passes for location: London (51.5072 / 0.1276)

Sorry there are no passes over London.